Weather in Olenguy

Russia / Zabaykalsky Krai     51°18′23″N   113°24′52″E
temp.,
°C
wind,
m/s
gust,
m/s
humid.,
%
clouds,
%
prec.,
mm/h
press.,
hPa
HPBL,
m
28 june, tue
tue2800:00+18ssw225775 0.0 100311
03:00+17sw22600 0.0 100311
06:00+15wsw11690 0.0 100411
09:00+22wnw23500 0.0 1003383
12:00+29n23311 0.0 10011777
15:00+31nw342560 0.0 9993321
18:00+27nne243519 0.0 9991026
21:00+24w11465 0.0 100011
29 june, wed
wed2900:00+19s22535 0.0 100213
03:00+17wsw11599 0.0 100311
06:00+19wsw1156100 0.0 100411
09:00+25sse124325 0.0 1004242
12:00+32ese11279 0.0 10021828
15:00+33sse432332 0.0 10013345
18:00+25wnw354485 0.3 1003301
21:00+23wsw215679 0.4 100312
30 june, thu
thu3000:00+18ese117076 0.0 100611
03:00+16sw22768 0.0 100611
06:00+16se11725 0.0 100511
09:00+25se24476 0.0 1004429
12:00+32s45275 0.0 10022268
15:00+32sse6528100 0.0 10003047
18:00+17ene4793100 12.3 1006185
21:00+18sw228297 12.4 100414
1 july, fri
fri100:00+16sw118597 0.3 100511
03:00+15ssw118358 0.3 100511
06:00+15sse11835 0.0 100511
09:00+22sse116669 0.0 1005235
12:00+30sw13391 0.0 1003956
15:00+27ese254294 0.1 1001326
18:00+18wsw31188100 5.9 1003245
21:00+17sw2291100 6.4 100328
2 july, sat
sat200:00+16nnw1191100 0.1 100311
03:00+15se009142 0.1 100311
06:00+15ssw2290100 0.0 100327
09:00+20wsw127370 0.0 1002242
12:00+28nw12462 0.0 1000789
15:00+32nne24290 0.0 9982149
18:00+32ese22320 0.0 9971215
21:00+25ese115017 0.0 99711